Weather reports worldwide

Advertisment
East malling, United Kingdom (99008): temperature & dewpoint: 11.08.2017 08:00:00 - 17.08.2017 08:00:00 (BST)East malling, United Kingdom (99008): temperature -20cm: 11.08.2017 08:00:00 - 17.08.2017 08:00:00 (BST)East malling, United Kingdom (99008): wind speed: 11.08.2017 08:00:00 - 17.08.2017 08:00:00 (BST)East malling, United Kingdom (99008): wind direction: 11.08.2017 08:00:00 - 17.08.2017 08:00:00 (BST)East malling, United Kingdom (99008): reduced air pressure: 11.08.2017 08:00:00 - 17.08.2017 08:00:00 (BST)East malling, United Kingdom (99008): visibility: 11.08.2017 08:00:00 - 17.08.2017 08:00:00 (BST)East malling, United Kingdom (99008): sunshine duration: 11.08.2017 08:00:00 - 17.08.2017 08:00:00 (BST)East malling, United Kingdom (99008): precipitation: 11.08.2017 08:00:00 - 17.08.2017 08:00:00 (BST)
Date & Time tt [°C] td [°C] tt -20cm [°C] ff [km/h] ff [kn] dd ppp [hPa] vv [km] sd [min] rr [mm]
17.08.2017 08:00:00 17,3 16,8 - 11 6 S 1011,3 - 0 0,0
17.08.2017 07:00:00 16,6 15,9 - 15 8 S 1011,1 - 0 0,2
17.08.2017 06:00:00 16,2 15,6 - 13 7 S 1011,7 - 0 0,4
17.08.2017 05:00:00 15,5 14,6 - 9 5 S 1011,9 - 0 0,2
17.08.2017 04:00:00 15,5 14,5 - 11 6 SSE 1012,4 - 0 0,0
17.08.2017 03:00:00 15,1 14,3 - 9 5 SSE 1013,4 - 0 2,6
17.08.2017 02:00:00 15,3 13,0 - 9 5 SSW 1014,3 - 0 0,2
17.08.2017 01:00:00 15,5 12,6 - 9 5 S 1014,7 - - 0,0
17.08.2017 00:00:00 14,3 12,5 - 8 4 SSE 1015,7 - 0 0,0
16.08.2017 23:00:00 14,3 11,8 - 5 3 S 1016,3 - 0 0,0
16.08.2017 22:00:00 15,3 12,1 - 8 4 S 1017,0 - 0 0,0
16.08.2017 21:00:00 15,7 11,0 - 5 3 S 1017,7 - 0 0,0
16.08.2017 20:00:00 17,0 10,2 - 5 3 S 1018,0 - 0 0,0
16.08.2017 19:00:00 19,3 10,6 - 11 6 SSW 1018,0 - 36 0,0
16.08.2017 18:00:00 20,4 10,7 - 15 8 SSW 1018,2 - 54 0,0
16.08.2017 17:00:00 20,5 10,5 - 18 10 S 1018,6 - 60 0,0
16.08.2017 16:00:00 21,0 11,3 - 16 9 S 1018,9 - 42 0,0
16.08.2017 15:00:00 21,2 11,5 - 16 9 SW 1019,3 - 48 0,0
16.08.2017 14:00:00 20,7 11,3 - 16 9 SW 1019,4 - 42 0,0
16.08.2017 13:00:00 21,0 13,1 - 15 8 SW 1019,8 - 36 0,0
16.08.2017 12:00:00 19,1 13,1 - 11 6 SSW 1020,4 - 12 0,0
16.08.2017 11:00:00 17,7 13,4 - 9 5 SW 1020,9 - 18 0,0
16.08.2017 10:00:00 16,3 11,5 18,0 5 3 SSW 1021,0 16 0 0,0
16.08.2017 09:00:00 14,5 10,6 - 4 2 SSW 1020,8 - 0 0,0
16.08.2017 08:00:00 12,8 11,3 - 0 0 N 1020,7 - 12 0,0
16.08.2017 07:00:00 10,0 9,7 - 0 0 N 1020,5 - 18 0,0
16.08.2017 06:00:00 9,1 8,5 - 0 0 N 1020,2 - 6 0,0
16.08.2017 05:00:00 9,8 8,3 - 4 2 S 1019,9 - 0 0,0
16.08.2017 04:00:00 10,2 8,7 - 4 2 SSW 1019,8 - 0 0,0
16.08.2017 03:00:00 11,5 9,0 - 4 2 SSW 1020,0 - 0 0,0
16.08.2017 02:00:00 13,2 9,1 - 8 4 W 1019,7 - 0 0,0
16.08.2017 01:00:00 12,9 9,7 - 5 3 SW 1019,7 - - 0,0
16.08.2017 00:00:00 14,1 10,1 - 2 1 W 1019,5 - 0 0,0
15.08.2017 23:00:00 15,4 11,3 - 5 3 WSW 1019,2 - 0 0,0
15.08.2017 22:00:00 17,1 13,7 - 5 3 WSW 1018,8 - 0 0,0
15.08.2017 21:00:00 18,1 14,0 - 9 5 SSW 1018,0 - 24 0,0
15.08.2017 20:00:00 20,0 12,7 - 9 5 SW 1017,0 - 48 0,0
15.08.2017 19:00:00 22,0 10,9 - 8 4 W 1016,1 - 36 0,0
15.08.2017 18:00:00 23,1 10,0 - 9 5 W 1015,7 - 60 0,0
15.08.2017 17:00:00 23,5 11,6 - 15 8 W 1015,7 - 42 0,0
15.08.2017 16:00:00 22,1 11,9 - 16 9 WSW 1015,5 - 36 0,0
15.08.2017 15:00:00 22,6 13,1 - 15 8 W 1015,3 - 42 0,0
15.08.2017 14:00:00 21,6 14,3 - 15 8 W 1015,1 - 30 0,0
15.08.2017 13:00:00 22,0 13,6 - 13 7 W 1014,6 - 54 0,0
15.08.2017 12:00:00 21,3 14,3 - 9 5 NW 1014,3 - - 0,0
15.08.2017 11:00:00 20,1 14,8 - 9 5 NW 1014,4 - 36 0,0
15.08.2017 10:00:00 18,6 14,1 18,9 5 3 N 1014,3 10 12 0,0
15.08.2017 09:00:00 16,9 15,3 - 2 1 WNW 1014,0 - 0 0,0
15.08.2017 08:00:00 15,3 14,8 - 2 1 S 1013,4 - 0 0,2
15.08.2017 07:00:00 14,8 14,2 - 4 2 WSW 1013,2 - 0 0,0
15.08.2017 06:00:00 14,7 13,9 - 5 3 SW 1013,3 - 0 0,4
15.08.2017 05:00:00 15,1 13,8 - 9 5 SSE 1013,1 - 0 0,6
15.08.2017 04:00:00 14,0 13,4 - 2 1 SE 1012,8 - 0 0,0
15.08.2017 03:00:00 13,7 13,2 - 0 0 N 1013,4 - 0 0,0
15.08.2017 02:00:00 13,6 13,0 - 2 1 WSW 1013,9 - 0 0,0
15.08.2017 01:00:00 13,6 13,2 - 2 1 SSW 1014,2 - - 0,0
15.08.2017 00:00:00 12,9 12,0 - 4 2 ESE 1014,6 - 0 0,0
14.08.2017 23:00:00 13,5 11,7 - 4 2 S 1014,9 - 0 0,0
14.08.2017 22:00:00 14,5 11,5 - 4 2 S 1015,1 10 0 0,0
14.08.2017 21:00:00 17,4 12,3 - 4 2 S 1015,2 - 24 0,0
14.08.2017 20:00:00 19,4 11,7 - 8 4 SSE 1014,8 - 6 0,0
14.08.2017 19:00:00 20,0 11,2 - 8 4 S 1015,0 - 6 0,0
14.08.2017 18:00:00 21,4 11,6 - 9 5 S 1015,6 - 42 0,0
14.08.2017 17:00:00 22,3 10,4 - 13 7 SSW 1015,8 - 60 0,0
14.08.2017 16:00:00 22,3 10,5 - 15 8 SSW 1016,0 - 60 0,0
14.08.2017 15:00:00 22,9 10,9 - 11 6 S 1016,1 - 54 0,0
14.08.2017 14:00:00 22,7 11,6 - 11 6 SSE 1016,6 - 54 0,0
14.08.2017 13:00:00 21,9 10,9 - 15 8 S 1017,2 - 54 0,0
14.08.2017 12:00:00 21,7 11,4 - 9 5 SSW 1017,8 - 36 0,0
14.08.2017 11:00:00 20,5 12,7 - 8 4 SSE 1018,5 - 60 0,0
14.08.2017 10:00:00 19,1 12,6 17,9 5 3 N 1019,0 16 48 0,0
14.08.2017 09:00:00 16,3 13,0 - 2 1 NW 1019,4 - 54 0,0
14.08.2017 08:00:00 13,0 12,7 - 0 0 N 1019,4 - 30 0,0
14.08.2017 07:00:00 9,7 9,3 - 2 1 WSW 1019,5 - 18 0,0
14.08.2017 06:00:00 9,2 8,7 - 2 1 SW 1019,4 - 6 0,0
14.08.2017 05:00:00 10,7 10,2 - 2 1 W 1019,5 - 0 0,0
14.08.2017 04:00:00 11,2 10,8 - 2 1 W 1020,0 - 0 0,0
14.08.2017 03:00:00 11,2 10,8 - 0 0 N 1020,4 - 0 0,0
14.08.2017 02:00:00 10,4 10,0 - 2 1 SSE 1020,8 - 0 0,0
14.08.2017 01:00:00 9,9 9,2 - 0 0 N 1021,2 - - 0,0
14.08.2017 00:00:00 10,5 9,5 - 4 2 WSW 1021,4 - 0 0,0
13.08.2017 23:00:00 11,6 9,7 - 0 0 N 1021,6 - 0 0,0
13.08.2017 22:00:00 14,8 10,1 - 9 5 SSE 1021,5 - 0 0,0
13.08.2017 21:00:00 16,3 10,7 - 11 6 ESE 1021,4 - 0 0,0
13.08.2017 20:00:00 17,8 10,7 - 8 4 SW 1020,8 - 30 0,0
13.08.2017 19:00:00 20,2 9,1 - 8 4 SSW 1020,6 - 60 0,0
13.08.2017 18:00:00 19,8 7,2 - 8 4 S 1020,6 - 36 0,0
13.08.2017 17:00:00 21,3 6,5 - 4 2 NNE 1020,9 - 54 0,0
13.08.2017 16:00:00 20,3 6,6 - 2 1 NNE 1021,1 - 30 0,0
13.08.2017 15:00:00 21,3 7,1 - 8 4 WSW 1021,3 - 48 0,0
13.08.2017 14:00:00 20,5 7,0 - 8 4 NW 1021,5 - 54 0,0
13.08.2017 13:00:00 19,7 6,4 - 11 6 NW 1021,7 - 60 0,0
13.08.2017 12:00:00 20,0 6,2 - 13 7 N 1021,9 - 60 0,0
13.08.2017 11:00:00 19,3 6,0 - 11 6 NNW 1021,9 - 60 0,0
13.08.2017 10:00:00 17,6 8,5 17,7 9 5 NNW 1021,9 - 60 0,0
13.08.2017 09:00:00 16,5 9,9 - 9 5 N 1021,4 - 60 0,0
13.08.2017 08:00:00 14,5 9,2 - 11 6 NNW 1021,2 - 48 0,0
13.08.2017 07:00:00 13,6 9,4 - 8 4 NNW 1020,8 - 6 0,0
13.08.2017 06:00:00 13,4 9,1 - 13 7 NW 1020,3 - 6 0,0
13.08.2017 05:00:00 13,9 9,6 - 8 4 NNW 1019,9 - 0 0,0
13.08.2017 04:00:00 14,6 9,9 - 11 6 NW 1019,8 - 0 0,0
13.08.2017 03:00:00 15,0 10,0 - 11 6 NW 1019,6 - 0 0,0
13.08.2017 02:00:00 14,8 10,5 - 9 5 NW 1019,4 - 0 0,0
13.08.2017 01:00:00 14,1 11,3 - 5 3 W 1019,1 - - 0,0
13.08.2017 00:00:00 14,2 11,7 - 5 3 WSW 1018,7 - 0 0,0
12.08.2017 23:00:00 14,9 10,9 - 8 4 WSW 1018,3 - 0 0,0
12.08.2017 22:00:00 15,9 10,8 - 8 4 SW 1018,0 - 0 0,0
12.08.2017 21:00:00 16,5 11,4 - 8 4 SW 1017,5 - 0 0,0
12.08.2017 20:00:00 18,1 11,5 - 8 4 SW 1017,1 - 18 0,0
12.08.2017 19:00:00 21,0 11,0 - 11 6 W 1016,6 - 36 0,0
12.08.2017 18:00:00 21,3 11,4 - 15 8 W 1016,4 - 48 0,0
12.08.2017 17:00:00 20,6 11,4 - 16 9 W 1016,2 - 12 0,0
12.08.2017 16:00:00 21,0 11,5 - 13 7 W 1015,9 - 36 0,0
12.08.2017 15:00:00 20,7 12,1 - 21 11 W 1015,5 - 24 0,0
12.08.2017 14:00:00 22,4 12,6 - 16 9 W 1015,2 - 36 0,0
12.08.2017 13:00:00 20,4 12,1 - 16 9 W 1015,2 - 12 0,0
12.08.2017 12:00:00 20,8 12,8 - 18 10 SW 1014,8 - 42 0,0
12.08.2017 11:00:00 19,8 14,2 - 16 9 WSW 1014,9 - 24 0,0
12.08.2017 10:00:00 18,7 14,5 18,0 113 61 N 1015,0 6 18 0,0
12.08.2017 09:00:00 17,9 15,8 - 11 6 W 1014,8 - 0 0,2
12.08.2017 08:00:00 17,0 15,8 - 8 4 WSW 1014,8 - 0 0,0
12.08.2017 07:00:00 16,5 15,4 - 9 5 WSW 1014,5 - 0 0,0
12.08.2017 06:00:00 16,4 15,3 - 8 4 WSW 1014,2 - 0 0,0
12.08.2017 05:00:00 16,8 15,0 - 8 4 WSW 1014,2 - 0 0,0
12.08.2017 04:00:00 16,8 14,9 - 9 5 SW 1014,4 - 0 0,0
12.08.2017 03:00:00 16,7 14,8 - 11 6 SW 1014,7 - 0 0,0
12.08.2017 02:00:00 16,4 14,8 - 9 5 SW 1015,0 - 0 0,0
12.08.2017 01:00:00 16,2 14,5 - 11 6 SW 1015,4 - - 0,0
12.08.2017 00:00:00 16,0 14,1 - 13 7 SW 1016,1 - 0 0,0
11.08.2017 23:00:00 16,1 13,6 - 11 6 SW 1016,7 - 0 0,0
11.08.2017 22:00:00 16,2 13,4 - 11 6 SW 1017,1 - 0 0,0
11.08.2017 21:00:00 16,5 12,7 - 9 5 SW 1017,2 - 0 0,0
11.08.2017 20:00:00 17,4 12,7 - 13 7 SW 1017,1 - 0 0,0
11.08.2017 19:00:00 18,0 13,2 - 13 7 SW 1016,8 - 0 0,0
11.08.2017 18:00:00 19,5 11,7 - 11 6 WSW 1016,8 - 42 0,0
11.08.2017 17:00:00 19,9 13,1 - 15 8 SW 1017,3 - 42 0,0
11.08.2017 16:00:00 20,1 10,6 - 16 9 SW 1017,7 - 18 0,0
11.08.2017 15:00:00 20,7 9,4 - 18 10 SW 1018,1 - 54 0,0
11.08.2017 14:00:00 20,3 11,1 - 16 9 SW 1018,4 - 42 0,0
11.08.2017 13:00:00 20,8 10,7 - 15 8 WSW 1018,9 - 54 0,0
11.08.2017 12:00:00 20,2 11,5 - 13 7 WSW 1019,2 - 60 0,0
11.08.2017 11:00:00 19,7 10,6 - 13 7 WSW 1019,4 - 60 0,0
11.08.2017 10:00:00 18,6 13,6 15,7 172 93 N 1019,5 9 60 0,0
11.08.2017 09:00:00 16,7 13,6 - 5 3 SE 1019,9 - 54 0,0
11.08.2017 08:00:00 12,9 12,8 - 2 1 SE 1020,1 - 6 0,0

tt = temperature
td = dewpoint
tt -20cm = temperature -20cm
ff = wind speed
dd = wind direction
ppp = reduced air pressure
vv = visibility
sd = sunshine duration
rr = precipitation

Next stations